STARLINK-1336, 45557

Orbit data source: Space-Track

STARLINK-1336, 45557 is a payload satellite owned by SpaceX/Seattle (US) in LEO that was launched on Wed, 22 Apr 2020 UTC via an FALCON 9 launch vehicle from the Air Force Eastern Test Range (AFETR). Payload-class satellites include a variety of spacecraft equipped with specific instruments for various scientific and technological missions. These include communications satellites like Starlink; space stations such as the ISS; scientific satellites like the Hubble; Earth observation satellites from companies like Planet Labs, Umbra, and HawkEye 360; GPS; miniature CubeSats for education and research; and military/defense satellites.

Loading next visibility...
Identifier
45557, 2020-025AC
Orbit
LEO
Last TLE update
1 day ago
Origin
Manufacturer
SpaceX/Seattle
Mission
Partially operational Commercial Communications
Bus & Motor
STARLINK, Unknown motor
Mass
260 kg wet, ~248 kg dry
Launch date (UTC)
2020-04-22 (5 years ago)
Launch vehicle
FALCON 9
Launch site
Air Force Eastern Test Range (AFETR)
Object type
Payload
Rocket body
Debris
Shape & HBR
Box + 1 Pan, 8.86 m
Radar Cross Section
13.562 m², Large (>1 m²)

Expand to show TLE details & history

TLE from 1 day ago
0 STARLINK-1336
1 45557U 20025AC  25191.40544885  .00080931  00000-0  10053-2 0  9993
2 45557  53.0492  83.5296 0003881 168.7259 191.3841 15.59310422289000
Epoch: 2025-07-10T09:43Z
TLE epoch observation values (Epoch: 2025-07-10T09:43:50.78Z)
Latitude
0.00001°
Longitude
8.99582°
Altitude
393.125 km
Speed
7.674 km/s
True Right ascension
05h 34m 07s
True Declination
0° 00' 00"
Sunlit
Object was in daylight at epoch
Visualization orbit readout
Latitude
31.00846°
Longitude
157.16465°
Altitude
388.809 km
Speed
7.682 km/s
Apparent Right ascension
13h 32m 27s
Apparent Declination
-3° 46' 58"
Sunlit
Object is in daylight
Visualization observer readout
Local Sidereal Time
23:14:18
Azimuth
310.127° NW
Elevation
-42.281°
Doppler factor
1
Orbital elements
Apogee altitude
392.556 km
Perigee altitude
387.303 km
Semi-major axis
6,768.066 km
Eccentricity
0.00039
Inclination
53.0492°
RAAN
83.5296°
Arg. of periapsis
168.7259°
True anomaly
Unknown
Mean anomaly
191.3841°
Eccentric anomaly
Unknown
Mean motion
3.89804 °/min
Orbital period
92.35 mins
BSTAR
0.0010053
Loading maneuver chart data...
Loading SW <> Apogee altitude chart data...
Loading historical data...
Loading historical data...
Loading historical data...
Loading historical data...
Loading historical data...
Loading historical data...
Loading historical data...

STARLINK-1336 Visibility forecast

Observer location: undefined°, undefined°

Span
Click to sort rows by Start time (UTC) header in descending order
Start Az.
Max El. time (UTC)
Max El. Az.
Max El.
End time (UTC)
End Az.
4 mins2025-07-11 19:47:21.205Z261.734° W2025-07-11 19:49:21.205Z355.988° N33.933°2025-07-11 19:51:21.205Z37.035° NE
4 mins2025-07-12 02:14:21.205Z300.75° NW2025-07-12 02:16:21.205Z193.278° SSW42.168°2025-07-12 02:18:21.205Z141.555° SSE
|